User: anonymous   Login
Location: Medlow Airstrip Trail, Medlow Bath NSW 2780, Australia
(33.6682°S, 150.3233°E)
Time: 19:57:41
(UTC+11:00)
Language:

Transit 2A Rocket - Orbit

View from above orbital plane
View from above orbital plane
View from above satellite
View from above satellite

Ground track
Ground track

The orbit data is extracted from the following two-line orbital elements,

1    47U 60007C   19288.83982735 -.00000042 +00000-0 +15607-4 0  9997
2    47 066.6647 091.7121 0221751 124.1022 238.1342 14.42053335099268
Epoch (UTC): 15 October 2019 20:09:21
Eccentricity: 0.0221751
inclination: 66.6647°
perigee height: 593 km
apogee height: 910 km
right ascension of ascending node: 91.7121°
argument of perigee: 124.1022°
revolutions per day: 14.42053335
mean anomaly at epoch: 238.1342°
orbit number at epoch: 9926

The dashed part of the orbit path shows where the satellite is in the earth's shadow,  

DLR